Hourly Data Report for November 22, 2020

VICTORIA UNIVERSITY CS
BRITISH COLUMBIA
Current Station Operator: ECCC - MSC

48°27'25.200" N
123°18'16.600" W
60.10 m
1018598
71783
WYJ

Download Data

Hourly Data (November 2020)
Hourly Data Report for November 22, 2020
TIME
LST
Temp Definition
°C
Dew Point Definition
°C
Rel Hum Definition
%
Precip. Amount Definition
mm

Wind Dir Definition
10's deg

Wind Spd Definition
km/h
Visibility Definition
km
Stn Press Definition
kPa
Hmdx Definition


Wind Chill Definition


Weather Definition


00:00 5.7 5.2 96 0.0 35 8   101.45     LegendNANA
01:00 5.4 4.8 95 0.0 33 9   101.33     LegendNANA
02:00 5.5 4.7 94 0.0 35 9   101.20     LegendNANA
03:00 5.5 4.4 92 0.0 36 9   101.10     LegendNANA
04:00 4.9 3.9 93 0.0 35 8   101.03     LegendNANA
05:00 4.7 3.5 92 0.0 33 5   100.99     LegendNANA
06:00 5.1 4.3 94 0.0 36 7   100.92     LegendNANA
07:00 4.6 4.0 96 0.0 31 5   100.92     LegendNANA
08:00 5.2 4.4 94 0.0 2 5   100.81     LegendNANA
09:00 5.6 4.8 94 0.0 31 6   100.83     LegendNANA
10:00 5.9 4.6 92 0.0 34 8   100.78     LegendNANA
11:00 5.7 5.2 96 0.0 1 5   100.77     LegendNANA
12:00 6.3 6.0 98 0.4 1 7   100.71     LegendNANA
13:00 6.2 6.1 99 0.2 35 7   100.66     LegendNANA
14:00 6.2 6.2 100 0.2 2 7   100.64     LegendNANA
15:00 5.9 5.8 100 0.2 1 10   100.63     LegendNANA
16:00 5.9 5.8 99 0.0 36 5   100.62     LegendNANA
17:00 5.9 5.8 99 0.0 35 3   100.57     LegendNANA
18:00 6.0 5.9 99 0.0 36 6   100.51     LegendNANA
19:00 5.7 5.7 100 0.0 29 1   100.51     LegendNANA
20:00 5.6 5.6 100 0.0 25 2   100.50     LegendNANA
21:00 5.4 5.3 100 0.0 0 1   100.50     LegendNANA
22:00 4.1 4.1 100 0.0 35 1   100.49     LegendNANA
23:00 4.1 4.0 100 0.0   0   100.47     LegendNANA

Notes on Data Quality.

Legend

  • E = Estimated
  • M = Missing
  • NA = Not Available*
  • [empty] = Indicates an unobserved value
Date modified: